#timestamp,LO_Frequency,Hit,StdDev 
1646784015.2,286047004.2,P
1646784035.0,286047002.7,N
1646784035.9,286047002.7,N
1646784055.8,286047002.5,N
1646784075.6,286047002.1,N
1646784095.4,286047000.1,N
1646784115.3,286047000.5,N
1646784135.1,286047002.0,N
1646784155.9,286047004.4,Y
1646784175.7,286046999.9,P
1646784195.5,286046998.4,N
1646784215.4,286046998.9,N
1646784235.2,286046999.4,N
1646784255.0,286046999.2,N
1646784256.0,286046999.2,N
1646784275.8,286046999.0,N
1646784295.6,286046999.0,N
1646784315.5,286046996.6,Y
1646784335.3,286046998.7,P
1646784355.1,286046998.5,P
1646784375.9,286046999.3,N
1646784395.7,286046999.0,N
1646784415.6,286046996.5,Y
1646784435.4,286046999.7,P
1646784455.2,286047000.1,N
1646784475.1,286047000.0,N
1646784476.0,286047000.0,N
1646784495.8,286047002.6,Y
1646784515.7,286047000.6,P
1646784535.5,286046998.6,P
1646784555.3,286047001.2,N
1646784575.2,286046998.5,N
1646784595.9,286046998.4,N
1646784615.7,286047001.1,N
1646784635.6,286046999.9,N
1646784655.4,286047000.8,N
1646784675.3,286046998.2,N
1646784695.1,286046998.1,N
1646784696.0,286046998.1,N
1646784715.8,286047002.7,N
1646784735.7,286047000.9,N
1646784755.5,286047000.7,N
1646784775.3,286047000.6,N
1646784795.2,286046998.1,N
1646784815.0,286047000.9,N
1646784815.9,286047000.9,N
1646784835.8,286047000.4,N
1646784855.6,286046999.8,N
1646784875.4,286047002.4,N
1646784895.3,286047002.8,N
1646784915.1,286047000.5,N
1646784935.9,286047002.2,N
1646784955.7,286047001.8,N
1646784975.5,286047001.5,N
1646784995.4,286047002.5,N
1646785015.2,286047002.5,N
1646785035.1,286047002.1,N
1646785036.0,286047002.1,N
1646785055.8,286047002.2,N
1646785075.6,286047002.3,N
1646785095.5,286047002.5,N
1646785115.3,286047001.5,N
1646785135.2,286047001.8,N
1646785155.9,286047001.6,N
1646785175.7,286047001.8,N
1646785195.6,286047002.1,N
1646785215.4,286047001.0,N
1646785235.2,286047001.2,N
1646785255.1,286046999.8,N
1646785256.0,286046999.8,N
1646785275.8,286046999.7,N
1646785295.7,286047001.9,N
1646785315.5,286047002.3,N
1646785335.3,286047001.3,N
1646785355.2,286047001.6,N
1646785375.0,286046999.7,N
1646785375.9,286046999.7,N
1646785395.8,286047000.6,N
1646785415.6,286047000.9,N
1646785435.4,286047000.7,N
1646785455.3,286046998.1,N
1646785475.1,286047000.6,N
1646785495.9,286047000.9,N
1646785515.7,286046998.5,N
1646785535.5,286046998.4,N
1646785555.4,286047000.8,N
1646785575.2,286047001.0,N
1646785595.0,286047001.2,N
1646785596.0,286047001.2,N
1646785615.8,286047000.9,N
1646785635.6,286047000.5,N
1646785655.5,286047000.5,N
1646785675.3,286047002.7,N
1646785695.1,286047002.7,N
1646785715.9,286047001.8,N
1646785735.7,286047002.8,N
1646785755.6,286046999.8,N
1646785775.4,286047001.0,N
1646785795.2,286046999.9,N
1646785815.1,286047002.6,N
1646785816.0,286047002.6,N
1646785835.8,286047002.3,N
1646785855.7,286047000.1,N
1646785875.6,286047000.8,N
1646785895.4,286047000.3,N
1646785915.3,286047000.7,N
1646785935.1,286046998.3,N
1646785955.9,286047000.6,N
1646785975.7,286046998.6,N
1646785995.5,286047001.1,N
1646786015.4,286046998.5,N
1646786035.2,286047001.3,N
1646786055.1,286047002.8,N
1646786056.0,286047002.8,N
1646786075.8,286047002.0,N
1646786095.6,286047004.0,Y
1646786115.5,286047001.8,P
1646786135.3,286046999.7,N
1646786155.1,286047002.3,N
1646786175.9,286047000.3,N
1646786195.7,286047002.5,N
1646786215.6,286047002.1,N
1646786235.4,286047000.1,N
1646786255.2,286046998.3,N
1646786275.1,286047001.5,N
1646786276.0,286047001.5,N
1646786295.8,286047002.8,N
1646786315.6,286046999.9,N
1646786335.5,286047000.6,N
1646786355.3,286046998.6,N
1646786375.2,286047001.0,N
1646786395.0,286047002.4,N
1646786395.9,286047002.4,N
1646786415.8,286046999.8,N
1646786435.6,286046998.6,N
1646786455.4,286046998.5,N
1646786475.3,286046998.2,N
1646786495.1,286046998.1,N
1646786515.8,286047000.9,N
1646786535.7,286047000.1,N
1646786555.5,286047002.1,N
1646786575.4,286047002.9,N
1646786595.2,286047003.9,N
1646786615.0,286047001.7,N
1646786615.9,286047001.7,N
1646786635.8,286047002.5,N
1646786655.6,286047001.9,N
1646786675.5,286047002.3,N
1646786695.3,286047002.8,N
1646786715.1,286047002.8,N
1646786735.9,286046999.8,N
1646786755.7,286047002.3,N
1646786775.5,286047000.3,N
1646786795.4,286047000.8,N
1646786815.2,286047002.7,N
1646786835.1,286047003.6,N
1646786836.0,286047003.6,N
1646786855.8,286047003.5,N
1646786875.6,286047004.4,N
1646786895.5,286047004.3,N
1646786915.3,286047002.0,N
1646786935.1,286047001.6,N
1646786955.9,286047003.2,N
1646786975.7,286047003.9,N
1646786995.6,286047004.3,N
1646787015.4,286047004.0,N
1646787035.2,286047004.3,N
1646787055.1,286047005.7,Y
1646787056.0,286047005.7,P
1646787075.8,286047000.1,N
1646787095.7,286046998.1,N
1646787115.5,286046999.7,N
1646787135.3,286046998.5,N
1646787155.2,286046998.7,N
1646787175.9,286046999.6,N
1646787195.7,286046996.9,N
1646787215.6,286046999.2,N
1646787235.4,286046998.6,N
1646787255.3,286046999.3,N
1646787275.1,286046996.9,N
1646787295.8,286046998.8,N
1646787315.7,286046998.3,N
1646787335.5,286046996.9,N
1646787355.4,286046998.9,N
1646787375.2,286046996.5,N
1646787395.0,286046999.3,N
1646787395.9,286046999.3,N
1646787415.8,286046997.0,N
1646787435.6,286046998.8,N
1646787455.4,286046999.2,N
1646787475.3,286046998.6,N
1646787495.1,286046998.7,N
1646787515.9,286046997.1,N
1646787535.7,286046997.1,N
1646787555.5,286046999.5,N
1646787575.4,286047000.9,N
1646787595.2,286047000.8,N
